星链-31365 (STARLINK-31365 )

导读

STARLINK-31365是美国太空探索技术公司(SpaceX)星链互联网卫星项目中的一颗卫星,于北京时间2024年2月15日发射升空,归属美国。星链项目旨在搭建全球卫星互联网,为全球多地提供高速低延迟网络服务,该卫星入轨后将进一步扩充星链星座规模,助力项目组网推进。

Basic Information
目录编号:
58973
目录名称:
STARLINK-31365
国际标识:
2024-031J
轨道中心:
EARTH
卫星名称:
星链-31365
卫星全名:
星链-31365 (STARLINK-31365 )
卫星状态:
在轨 (已飞行932 天)
发射日期:
2024-02-15 UTC
国别 :
美国 (US)
星等 :
--
Orbit Information
数据来源 国际轨道数据 AOE轨道数据
星历时间 2026-09-02T11:17:17+0800
1天前
查看轨道信息
2026-08-29T23:00:00+0800
5天前
查看轨道信息
半长轴 6840.887km 6840.844km
偏心率 0.0001397 0.0001329
轨道倾角 53.159° 53.157°
近地点辐角 79.824° 73.542°
升交点赤经 195.302° 211.720°
平近点角 280.292° 316.168°
近地点 461.794km 461.797km
远地点 463.706km 463.617km
周期 93.849分钟 93.848分钟
每日圈数 15.343844 15.343988
Detailed Information
固有亮度:
5
最大亮度:
0.3
卫星平台:
Starlink v2.0 mini
覆盖范围:
全球
运营商:
太空探索技术公司
运营商所在国:
美国
制造商(研发单位):
太空探索技术公司
制造商所在国:
美国
使用方式:
暂无
Satellite Introduction
星链(Starlink)计划是由太空探索技术公司(SpaceX)提出的一个巨型低轨卫星互联网星座项目,计划在2019年至2024年间在太空搭建由约1.2万颗卫星组成的“星链”网络,其中1584颗将部署在地球上空550千米处的近地轨道,并从2020年开始工作。该卫星仍在工作。
2D Orbit Map
3D Orbit Map
Orbit Altitude Analysis Chart
Orbit Inclination Analysis Chart
Orbit Comprehensive Analysis Chart
View Comprehensive Chart